[[{"header":{"parameterUnit":"m.s-1","parameterCategory":1,"la1":30.2991,"la2":30.254,"lo1":-89.0895,"lo2":-89.0444,"dy":0.0017,"dx":0.0017,"nx":28,"ny":28,"refTime":"2023-10-18T03:00:00:Z","depth":0,"parameterNumber":2,"parameterNumberName":"U-component_of_WINDS"},"data":[0,0,0,0,0,0,0,0,0,0,0,0,0,0,0,0,0,0,0,0,0,0,0,0,0,0,0,0,0,0,0,0,0,0,0,0,0,0,0,0,0,0,0,0,0,0,0,0,0,0,0,0,0,0,0,0,0,0,-1.2026,-1.2026,0,-1.2043,-1.2043,-1.2044,-1.2039,-1.2039,-1.2039,-1.2038,-1.2057,-1.2058,-1.2059,0,0,0,0,0,0,0,0,0,0,0,0,0,-1.1991,-1.1991,-1.2026,-1.2026,-1.2026,-1.2043,-1.2043,-1.2044,-1.2039,-1.2039,-1.2039,-1.2038,-1.2057,-1.2058,-1.2059,0,0,0,0,0,0,0,0,0,0,0,0,0,-1.2007,-1.1992,-1.2026,-1.2026,-1.2026,-1.2043,-1.2043,-1.2044,-1.204,-1.2039,-1.2039,-1.2038,-1.2057,-1.2058,-1.2059,-1.2077,0,0,-1.2063,-1.2064,0,0,0,0,0,0,0,0,-1.2006,-1.2008,-1.2026,-1.2026,-1.2027,-1.2039,-1.2038,-1.2055,-1.204,-1.2035,-1.2038,-1.2038,-1.2052,-1.2053,-1.2058,-1.2078,-1.2079,-1.2063,-1.2064,-1.2064,-1.2065,0,0,0,0,0,0,0,-1.2005,-1.2007,-1.2033,-1.2026,-1.2027,-1.2026,-1.2028,-1.2041,-1.2046,-1.2035,-1.2035,-1.2037,-1.2052,-1.2056,-1.2058,-1.2079,-1.2063,-1.2064,-1.2065,-1.2065,-1.2115,-1.2115,0,0,0,0,0,0,-1.2003,-1.2007,-1.2032,-1.2033,-1.2015,-1.2027,-1.2029,-1.2035,-1.2046,-1.2047,-1.2037,-1.2037,-1.2055,-1.2057,-1.2059,-1.208,-1.2064,-1.2066,-1.2066,-1.2114,-1.2115,-1.2115,0,0,0,0,0,0,-1.2003,-1.2006,-1.2032,-1.202,-1.2023,-1.2028,-1.2035,-1.2036,-1.2041,-1.2047,-1.2048,-1.2041,-1.2054,-1.2057,-1.2072,-1.2081,-1.2066,-1.2067,-1.2113,-1.2114,-1.2115,-1.2123,0,0,0,0,0,0,-1.2002,-1.2005,-1.2012,-1.202,-1.2024,-1.2044,-1.2036,-1.2037,-1.2043,-1.2042,-1.2051,-1.2052,-1.2054,-1.2071,-1.2074,-1.2082,-1.2068,-1.2113,-1.2114,-1.2115,-1.2122,-1.2124,-1.2126,0,0,0,0,0,-1.2,-1.2014,-1.2012,-1.2015,-1.2032,-1.2045,-1.2047,-1.2049,-1.2043,-1.205,-1.2054,-1.2052,-1.2079,-1.2072,-1.2076,-1.2085,-1.2112,-1.2114,-1.2115,-1.2121,-1.2123,-1.2126,0,0,0,0,0,0,-1.2007,-1.2015,-1.2013,-1.2029,-1.2036,-1.2044,-1.2053,-1.2051,-1.206,-1.2059,-1.2061,-1.2063,-1.2079,-1.2083,-1.2075,-1.2102,-1.2095,-1.2097,-1.2099,-1.2101,-1.2103,-1.2101,-1.2069,0,0,0,0,0,-1.201,-1.202,-1.2026,-1.204,-1.2044,-1.2048,-1.2053,-1.2054,-1.2061,-1.2065,-1.207,-1.2078,-1.2088,-1.2095,-1.2105,-1.2123,-1.2125,-1.2131,-1.2132,-1.2134,-1.2136,-1.2145,-1.2148,-1.212,-1.212,-1.212,0,0,-1.2017,-1.2022,-1.2028,-1.2041,-1.2047,-1.2057,-1.205,-1.2061,-1.2069,-1.2066,-1.2081,-1.2085,-1.2094,-1.2111,-1.2119,-1.2115,-1.2144,-1.2136,-1.2137,-1.2138,-1.2147,-1.215,-1.2152,-1.2121,-1.212,-1.212,0,0,-1.2035,-1.204,-1.2052,-1.2057,-1.2066,-1.2068,-1.2071,-1.2079,-1.2082,-1.2096,-1.2095,-1.2104,-1.2122,-1.2128,-1.2134,-1.2154,-1.2152,-1.2158,-1.2167,-1.2177,-1.2179,-1.2181,-1.2188,-1.219,-1.2159,-1.2159,-1.2159,0,-1.2042,-1.2057,-1.2058,-1.2069,-1.2075,-1.2073,-1.2085,-1.2091,-1.2102,-1.2106,-1.2102,-1.2125,-1.2131,-1.2149,-1.2153,-1.2158,-1.2162,-1.2156,-1.2178,-1.218,-1.2182,-1.2189,-1.2192,-1.216,-1.216,-1.216,-1.216,0,-1.2066,-1.2077,-1.2085,-1.2096,-1.2102,-1.2114,-1.2117,-1.2124,-1.2124,-1.2127,-1.2143,-1.215,-1.2161,-1.2165,-1.2166,-1.2184,-1.2181,-1.2178,-1.217,-1.2185,-1.2192,-1.2194,-1.2161,-1.216,-1.216,-1.216,0,0,-1.2088,-1.2099,-1.2102,-1.2107,-1.2116,-1.2124,-1.2136,-1.2146,-1.2152,-1.216,-1.217,-1.2186,-1.2182,-1.2189,-1.219,-1.2198,-1.2214,-1.2194,-1.2194,-1.2197,-1.2234,-1.2236,-1.2239,-1.2213,-1.2213,-1.2214,-1.2233,0,-1.2107,-1.2127,-1.2128,-1.2146,-1.2156,-1.2154,-1.2164,-1.2171,-1.2175,-1.2184,-1.2188,-1.2198,-1.2193,-1.2197,-1.2205,-1.221,-1.2221,-1.2209,-1.2222,-1.2223,-1.222,-1.2242,-1.2245,-1.2262,-1.2235,-1.2236,-1.2236,0,-1.2131,-1.2139,-1.2158,-1.2165,-1.2169,-1.2178,-1.2188,-1.2197,-1.2205,-1.2207,-1.2214,-1.2214,-1.2226,-1.2219,-1.2236,-1.2228,-1.2234,-1.2237,-1.2238,-1.2239,-1.223,-1.2243,-1.2268,-1.227,-1.224,-1.224,-1.224,0,-1.2144,-1.216,-1.2174,-1.2178,-1.2187,-1.2193,-1.2198,-1.2205,-1.2211,-1.222,-1.2224,-1.2235,-1.224,-1.2248,-1.2251,-1.2246,-1.2269,-1.2261,-1.2271,-1.2271,-1.2275,-1.2275,-1.2301,-1.228,-1.228,-1.228,-1.2279,0,-1.2165,-1.2176,-1.218,-1.2188,-1.2201,-1.2203,-1.2216,-1.222,-1.2227,-1.2236,-1.2235,-1.2244,-1.2248,-1.2257,-1.226,-1.2274,-1.2277,-1.2279,-1.2279,-1.2278,-1.2278,-1.2282,-1.2281,-1.228,-1.228,-1.228,-1.228,0,-1.2182,-1.2185,-1.2199,-1.2207,-1.2209,-1.2218,-1.2225,-1.2233,-1.2236,-1.2248,-1.2251,-1.2256,-1.2267,-1.2271,-1.2285,-1.2287,-1.2303,-1.2303,-1.23,-1.23,-1.2309,-1.2308,-1.2338,-1.2342,-1.2318,-1.2319,-1.2319,0,-1.2195,-1.2204,-1.2212,-1.2218,-1.2222,-1.2231,-1.2238,-1.224,-1.2246,-1.2256,-1.2263,-1.2274,-1.2283,-1.2301,-1.2306,-1.2317,-1.2317,-1.2326,-1.2318,-1.2317,-1.2316,-1.2316,-1.2317,-1.2328,-1.2328,-1.2328,-1.2328,0,-1.2217,-1.2218,-1.2226,-1.2235,-1.2242,-1.225,-1.2257,-1.2262,-1.2265,-1.2273,-1.2284,-1.2291,-1.2305,-1.2316,-1.2326,-1.2331,-1.233,-1.2331,-1.2333,-1.2333,-1.2331,-1.2332,-1.2304,-1.233,-1.233,-1.233,-1.233,-1.233,-1.2232,-1.224,-1.2246,-1.2256,-1.2262,-1.2268,-1.2276,-1.228,-1.2289,-1.23,-1.2301,-1.2313,-1.2321,-1.2335,-1.2341,-1.235,-1.2348,-1.2352,-1.2353,-1.2353,-1.2354,-1.2329,-1.2352,-1.2352,-1.2352,-1.2352,-1.2352,0,-1.2254,-1.2258,-1.2267,-1.2276,-1.2284,-1.2282,-1.229,-1.2296,-1.2307,-1.2314,-1.2322,-1.2335,-1.2346,-1.2352,-1.2363,-1.2369,-1.2369,-1.2372,-1.2371,-1.2373,-1.2356,-1.2352,-1.2372,-1.2372,-1.2372,-1.2372,-1.2372,-1.2372,-1.2266,-1.2279,-1.228,-1.2296,-1.23,-1.2311,-1.2316,-1.2322,-1.2328,-1.2342,-1.235,-1.2354,-1.2361,-1.2372,-1.2382,-1.2383,-1.2387,-1.239,-1.2392,-1.2376,-1.2374,-1.2372,-1.2369,-1.2391,-1.2391,-1.2408,-1.2408,-1.2408]},{"header":{"parameterUnit":"m.s-1","parameterCategory":1,"la1":30.2991,"la2":30.254,"lo1":-89.0895,"lo2":-89.0444,"dy":0.0017,"dx":0.0017,"nx":28,"ny":28,"refTime":"2023-10-18T03:00:00:Z","depth":0,"parameterNumber":3,"parameterNumberName":"V-component_of_WINDS"},"data":[0,0,0,0,0,0,0,0,0,0,0,0,0,0,0,0,0,0,0,0,0,0,0,0,0,0,0,0,0,0,0,0,0,0,0,0,0,0,0,0,0,0,0,0,0,0,0,0,0,0,0,0,0,0,0,0,0,0,3.1263,3.1263,0,3.1294,3.1294,3.1295,3.126,3.1259,3.1258,3.1257,3.1286,3.1288,3.129,0,0,0,0,0,0,0,0,0,0,0,0,0,3.117,3.1172,3.1263,3.1263,3.1264,3.1294,3.1294,3.1295,3.1261,3.1259,3.1257,3.1256,3.1285,3.1288,3.129,0,0,0,0,0,0,0,0,0,0,0,0,0,3.1207,3.1173,3.1263,3.125,3.125,3.1294,3.1294,3.1295,3.1261,3.1259,3.1257,3.1255,3.1284,3.1287,3.129,3.1348,0,0,3.1299,3.1301,0,0,0,0,0,0,0,0,3.1205,3.121,3.1252,3.1251,3.125,3.1271,3.1273,3.1313,3.1261,3.1257,3.1256,3.1254,3.1282,3.1286,3.1296,3.1349,3.135,3.13,3.1302,3.1303,3.1304,0,0,0,0,0,0,0,3.1202,3.1209,3.1275,3.1252,3.1252,3.1242,3.1245,3.128,3.128,3.1257,3.1254,3.1259,3.1282,3.1293,3.1296,3.1351,3.13,3.1302,3.1304,3.1305,3.1451,3.1453,0,0,0,0,0,0,3.1202,3.1207,3.1274,3.1276,3.1223,3.1245,3.1249,3.1267,3.128,3.128,3.126,3.1257,3.1289,3.1293,3.1297,3.1363,3.1303,3.1306,3.1307,3.1449,3.1451,3.1453,0,0,0,0,0,0,3.12,3.1208,3.1273,3.1241,3.1248,3.1249,3.1269,3.1268,3.1279,3.1282,3.1282,3.1272,3.1287,3.1293,3.1335,3.1363,3.1307,3.131,3.1446,3.1449,3.1452,3.1496,0,0,0,0,0,0,3.1197,3.1208,3.123,3.1242,3.125,3.1312,3.1271,3.127,3.1285,3.1281,3.1293,3.1293,3.1286,3.1331,3.1338,3.1366,3.1312,3.1443,3.1447,3.1451,3.1492,3.1501,3.1508,0,0,0,0,0,3.1194,3.1242,3.1232,3.124,3.1279,3.1313,3.1318,3.131,3.1287,3.1309,3.1311,3.1293,3.136,3.1335,3.1343,3.1373,3.1442,3.1446,3.1451,3.1489,3.1499,3.1508,0,0,0,0,0,0,3.1233,3.1243,3.1232,3.1285,3.1298,3.1307,3.1335,3.1321,3.1341,3.1336,3.1325,3.1328,3.1372,3.1377,3.135,3.1428,3.1397,3.1403,3.1423,3.1433,3.144,3.1437,3.1314,0,0,0,0,0,3.1248,3.1276,3.1283,3.1329,3.1336,3.1335,3.1349,3.1342,3.1355,3.1361,3.1366,3.1379,3.1402,3.1418,3.144,3.1494,3.1494,3.1518,3.1526,3.1532,3.1537,3.1563,3.1573,3.1468,3.1468,3.1468,0,0,3.1278,3.1287,3.1306,3.1337,3.1346,3.1374,3.134,3.1371,3.1391,3.1365,3.1405,3.1409,3.1423,3.147,3.1491,3.1476,3.1566,3.1538,3.1543,3.1544,3.1569,3.1579,3.1587,3.1472,3.1471,3.1471,0,0,3.1348,3.1359,3.1396,3.1407,3.1422,3.1421,3.143,3.1441,3.1443,3.1483,3.1463,3.1487,3.1529,3.1539,3.1549,3.1621,3.1604,3.1629,3.1668,3.1694,3.1702,3.1709,3.1732,3.1741,3.1635,3.1635,3.1635,0,3.1383,3.1425,3.1418,3.145,3.1463,3.1442,3.1479,3.149,3.1511,3.152,3.1503,3.1554,3.1562,3.161,3.1627,3.1638,3.1646,3.1626,3.1702,3.1709,3.1715,3.1737,3.1746,3.1637,3.1637,3.1637,3.1637,0,3.1467,3.1497,3.1525,3.1547,3.1564,3.1598,3.1594,3.1612,3.1603,3.1603,3.1643,3.1652,3.1675,3.1686,3.1678,3.1733,3.1722,3.1704,3.1671,3.1728,3.1748,3.1757,3.1641,3.164,3.1639,3.1639,0,0,3.1561,3.1577,3.1588,3.1596,3.1611,3.1633,3.1667,3.1689,3.1703,3.1719,3.1745,3.1781,3.1763,3.1775,3.1768,3.1791,3.1844,3.1769,3.1769,3.1781,3.1902,3.1914,3.1924,3.1834,3.1836,3.1837,3.19,0,3.1628,3.1686,3.168,3.1734,3.176,3.174,3.1768,3.178,3.1781,3.1802,3.1803,3.1827,3.1804,3.181,3.1833,3.1833,3.1868,3.1829,3.1856,3.1857,3.1851,3.1936,3.1949,3.2008,3.1909,3.191,3.1911,0,3.1715,3.1733,3.179,3.18,3.181,3.1836,3.1855,3.1877,3.1889,3.1888,3.1901,3.1889,3.1921,3.189,3.1932,3.1906,3.1917,3.1919,3.1921,3.1921,3.1886,3.1935,3.2027,3.2035,3.1924,3.1923,3.1922,0,3.1773,3.1813,3.1852,3.186,3.1873,3.1891,3.1897,3.1908,3.1921,3.1938,3.1946,3.1967,3.1977,3.1993,3.1986,3.1965,3.2029,3.1998,3.2027,3.2027,3.2039,3.2038,3.2131,3.2051,3.2051,3.2051,3.205,0,3.1848,3.1883,3.1878,3.1902,3.194,3.1932,3.197,3.1973,3.1982,3.2005,3.199,3.2011,3.2003,3.2024,3.2019,3.2053,3.2059,3.2057,3.2055,3.2057,3.2057,3.2062,3.2057,3.2053,3.2052,3.2052,3.2052,0,3.192,3.1918,3.1958,3.1967,3.197,3.1998,3.2005,3.2026,3.2026,3.2055,3.2061,3.206,3.2084,3.208,3.2106,3.2102,3.2144,3.2139,3.214,3.2138,3.2166,3.2162,3.2263,3.2275,3.219,3.2191,3.2192,0,3.1966,3.1992,3.2004,3.2018,3.2026,3.2049,3.2063,3.2056,3.207,3.2085,3.2104,3.2127,3.2144,3.2182,3.2183,3.2202,3.2195,3.2229,3.2198,3.2198,3.2192,3.219,3.2191,3.2235,3.2236,3.2236,3.2237,0,3.2048,3.2045,3.2066,3.2086,3.2102,3.2117,3.2131,3.2143,3.2137,3.2154,3.2178,3.2191,3.2218,3.2239,3.2257,3.2262,3.2248,3.2247,3.2254,3.2256,3.2254,3.2253,3.2154,3.2244,3.2244,3.2243,3.2243,3.2242,3.2106,3.2128,3.2139,3.2161,3.2171,3.2184,3.2204,3.2206,3.2226,3.2247,3.2242,3.2268,3.2278,3.2301,3.2308,3.2327,3.2315,3.2326,3.2328,3.233,3.2332,3.2253,3.2331,3.2331,3.2331,3.233,3.233,0,3.2185,3.2191,3.2212,3.2231,3.2248,3.2235,3.2249,3.2264,3.2288,3.2299,3.2316,3.2342,3.2363,3.2366,3.2385,3.24,3.2394,3.2405,3.2402,3.2403,3.2344,3.2335,3.2409,3.2409,3.2409,3.2409,3.2409,3.2409,3.2227,3.2262,3.2261,3.23,3.2306,3.2332,3.2341,3.2352,3.236,3.2391,3.2408,3.241,3.2417,3.2436,3.2454,3.2454,3.246,3.2474,3.2471,3.2415,3.2407,3.24,3.2391,3.2476,3.2476,3.2528,3.2528,3.2529]}]]